Regional Weather Roundup
Issued by NWS Cleveland, OH

Home | Current Version | Previous Version | Graphics & Text | Print | Product List | Glossary On
Versions: 1 2 3 4 5 6 7 8 9 10 11 12 13 14 15 16 17 18 19 20 21 22 23 24 25 26 27 28 29 30 31 32 33 34 35 36 37 38 39 40 41 42 43 44 45 46 47 48 49 50
000
ASUS41 KCLE 231200
RWRCLE
OHIO REGIONAL WEATHER ROUNDUP
NATIONAL WEATHER SERVICE WILMINGTON, OH
800 AM EDT TUE SEP 23 2014

NOTE: "FAIR" INDICATES FEW OR NO CLOUDS BELOW 12,000 FEET WITH NO
SIGNIFICANT WEATHER AND/OR OBSTRUCTIONS TO VISIBILITY.

OHZ001>008-015>018-024>027-034-035-043-044-231300-
   NORTHWEST OHIO

CITY           SKY/WX    TMP DP  RH WIND       PRES   REMARKS
DEFIANCE       CLEAR      1 N/A N/A CALM      30.35R
FINDLAY        CLEAR     45  42  89 CALM      30.33R
TOLEDO EXPRESS CLEAR     40  39  97 CALM      30.34R
TOLEDO METCALF CLEAR     45  41  86 CALM      30.35R
LIMA           CLEAR     43  41  93 CALM      30.33R
$$

OHZ009>014-019>023-028>033-038-089-231300-
   NORTHEAST OHIO

CITY           SKY/WX    TMP DP  RH WIND       PRES   REMARKS
CLE-HOPKINS    PTCLDY    44  41  89 S3        30.37R
CLE-LAKEFRONT  CLEAR     48  42  80 S8        30.34R
CUY CO. ARPT   PTCLDY    46  45  93 E5        30.35
LORAIN-ELYRIA  CLEAR     45  40  82 W3        30.36R HAZE
ASHTABULA      CLEAR     42  41  96 CALM      30.35R
AKRON-CANTON   CLEAR     46  40  79 CALM      30.35R
WOOSTER        CLEAR     38  35  89 CALM      30.36R FOG
MANSFIELD      CLEAR     43  41  93 CALM      30.34R
YOUNGSTOWN     PTCLDY    40  39  97 CALM      30.35R
$$

OHZ042-051>053-060>062-070>072-077>081-231300-
  SOUTHWEST OHIO

CITY           SKY/WX    TMP DP  RH WIND       PRES   REMARKS
CINC-COVINGTON CLEAR     48  45  89 CALM      30.32R
CINC-LUNKEN    PTCLDY    42  41  96 CALM      30.35R FOG
HAMILTON       CLEAR     40  39  97 CALM      30.35R
DAYTON         NOT AVBL
WRIGHT-PAT AFB NOT AVBL
DAYTON GENERAL CLEAR     43  41  93 NE5       30.33R
WILMINGTON     CLEAR     42  38  85 CALM      30.33R
$$

OHZ036-037-039>041-045>050-054>059-063>069-073>076-082>088-231300-
  CENTRAL AND SOUTHEAST OHIO

CITY           SKY/WX    TMP DP  RH WIND       PRES   REMARKS
COLUMBUS       CLEAR     47  42  83 CALM      30.34R
OSU AIRPORT    CLEAR     44  41  89 CALM      30.34R
BOLTON FIELD   CLEAR     39  39 100 CALM      30.35R
RICKENBACK AFB NOT AVBL
NEWARK         CLEAR     38  35  89 CALM      30.35R FOG
MARION         CLEAR     42  39  89 CALM      30.34R
LANCASTER      CLEAR     40  37  89 CALM      30.35R
ZANESVILLE     CLEAR     38  35  89 CALM      30.35R
NEW PHILLY     FOG       40  39  97 CALM      30.37R VSB<1/4
$$



USA.gov is the U.S. government's official web portal to all federal, state and local government web resources and services.